FLOCK 3S 3

导读

FLOCK 3S 3是一颗由美国发射的商业遥感卫星,隶属于Planet Labs公司的Flock星座。该卫星于北京时间2018年12月3日08:00发射升空,作为Flock 3S批次的一员,它延续了该系列的高分辨率对地观测能力,运行在近地轨道上,能够提供全球范围内亚米级分辨率的卫星影像,服务于农业监测、城市规划、灾害评估、地理信息更新等多个领域,为全球用户持续提供稳定的对地观测数据支持,推动了商业卫星遥感应用的普及化发展。

Basic Information
目录编号:
43788
目录名称:
FLOCK 3S 3
国际标识:
2018-099AG
轨道中心:
EARTH
卫星名称:
FLOCK 3S 3
卫星全名:
--
卫星状态:
已陨落 最后检测时间 2025-12-13
发射日期:
2018-12-03 UTC
国别 :
美国 (US)
星等 :
--
Orbit Information
数据来源 国际轨道数据
星历时间: 2025-12-13T06:53:03+0800
轨道信息已过期180天
半长轴: 6563.297km
偏心率: 0.0008564
轨道倾角: 97.414°
近地点辐角 286.187°
升交点赤经 62.208°
平近点角 73.848°
近地点: 179.541km
远地点: 190.783km
周期: 88.195分钟
每日圈数: 16.327501
Detailed Information
使用方式:
暂无